Location: Usti nad Labem
(50.6670°N, 14.0330°E)
Time: 12:15:30
(UTC+01:00)

ISS - Visible Passes

Search period start: 10 December 2019 00:00
Search period end: 20 December 2019 00:00
Orbit: 411 x 421 km, 51.6° (Epoch: 10 December)

Date Brightness Start Highest point End Pass type
(mag) Time Alt. Az. Time Alt. Az. Time Alt. Az.
10 Dec -2.4 16:49:54 10° W 16:53:05 40° SSW 16:56:16 10° SE visible
11 Dec -0.7 17:38:59 10° WSW 17:40:53 14° SW 17:42:46 10° S visible
12 Dec -0.9 16:49:59 10° W 16:52:35 21° SW 16:55:11 10° SSE visible
